Year,Month,Day,Hour,Minute,Value (Times are PST for windgust in km/hr)
2010,04,03,00,00,29.00
2010,04,03,00,01,32.20
2010,04,03,00,02,43.50
2010,04,03,00,03,30.60
2010,04,03,00,04,46.70
2010,04,03,00,05,43.50
2010,04,03,00,06,29.00
2010,04,03,00,07,33.80
2010,04,03,00,08,46.70
2010,04,03,00,09,29.00
2010,04,03,00,10,35.40
2010,04,03,00,11,25.70
2010,04,03,00,12,43.50
2010,04,03,00,13,32.20
2010,04,03,00,14,40.20
2010,04,03,00,15,40.20
2010,04,03,00,16,29.00
2010,04,03,00,17,35.40
2010,04,03,00,18,22.50
2010,04,03,00,19,32.20
2010,04,03,00,20,33.80
2010,04,03,00,21,32.20
2010,04,03,00,22,29.00
2010,04,03,00,23,27.40
2010,04,03,00,24,19.30
2010,04,03,00,25,37.00
2010,04,03,00,26,37.00
2010,04,03,00,27,37.00
2010,04,03,00,28,37.00
2010,04,03,00,29,32.20
2010,04,03,00,30,35.40
2010,04,03,00,31,38.60
2010,04,03,00,32,38.60
2010,04,03,00,33,41.80
2010,04,03,00,34,41.80
2010,04,03,00,35,30.60
2010,04,03,00,36,41.80
2010,04,03,00,37,33.80
2010,04,03,00,38,41.80
2010,04,03,00,39,35.40
2010,04,03,00,40,43.50
2010,04,03,00,41,41.80
2010,04,03,00,42,46.70
2010,04,03,00,43,45.10
2010,04,03,00,44,38.60
2010,04,03,00,45,43.50
2010,04,03,00,46,35.40
2010,04,03,00,47,35.40
2010,04,03,00,48,35.40
2010,04,03,00,49,29.00
2010,04,03,00,50,53.10
2010,04,03,00,51,24.20
2010,04,03,00,52,32.20
2010,04,03,00,53,24.20
2010,04,03,00,54,43.50
2010,04,03,00,55,30.60
2010,04,03,00,56,29.00
2010,04,03,00,57,25.70
2010,04,03,00,58,29.00
2010,04,03,00,59,38.60
2010,04,03,01,00,35.40
2010,04,03,01,01,22.50
2010,04,03,01,02,29.00
2010,04,03,01,03,19.30
2010,04,03,01,04,19.30
2010,04,03,01,05,22.50
2010,04,03,01,06,24.20
2010,04,03,01,07,38.60
2010,04,03,01,08,30.60
2010,04,03,01,09,16.10
2010,04,03,01,10,24.20
2010,04,03,01,11,49.90
2010,04,03,01,12,27.40
2010,04,03,01,13,22.50
2010,04,03,01,14,27.40
2010,04,03,01,15,27.40
2010,04,03,01,16,19.30
2010,04,03,01,17,35.40
2010,04,03,01,18,37.00
2010,04,03,01,19,30.60
2010,04,03,01,20,27.40
2010,04,03,01,21,29.00
2010,04,03,01,22,30.60
2010,04,03,01,23,20.90
2010,04,03,01,24,27.40
2010,04,03,01,25,20.90
2010,04,03,01,26,30.60
2010,04,03,01,27,19.30
2010,04,03,01,28,20.90
2010,04,03,01,29,22.50
2010,04,03,01,30,19.30
2010,04,03,01,31,33.80
2010,04,03,01,32,17.70
2010,04,03,01,33,20.90
2010,04,03,01,34,8.10
2010,04,03,01,35,19.30
2010,04,03,01,36,17.70
2010,04,03,01,37,20.90
2010,04,03,01,38,12.90
2010,04,03,01,39,29.00
2010,04,03,01,40,30.60
2010,04,03,01,41,24.20
2010,04,03,01,42,20.90
2010,04,03,01,43,20.90
2010,04,03,01,44,20.90
2010,04,03,01,45,17.70
2010,04,03,01,46,25.70
2010,04,03,01,47,24.20
2010,04,03,01,48,25.70
2010,04,03,01,49,20.90
2010,04,03,01,50,22.50
2010,04,03,01,51,14.50
2010,04,03,01,52,17.70
2010,04,03,01,53,11.30
2010,04,03,01,54,12.90
2010,04,03,01,55,16.10
2010,04,03,01,56,16.10
2010,04,03,01,57,19.30
2010,04,03,01,58,20.90
2010,04,03,01,59,19.30
2010,04,03,02,00,16.10
2010,04,03,02,01,20.90
2010,04,03,02,02,27.40
2010,04,03,02,03,22.50
2010,04,03,02,04,16.10
2010,04,03,02,05,17.70
2010,04,03,02,06,22.50
2010,04,03,02,07,25.70
2010,04,03,02,08,22.50
2010,04,03,02,09,33.80
2010,04,03,02,10,29.00
2010,04,03,02,11,19.30
2010,04,03,02,12,14.50
2010,04,03,02,13,20.90
2010,04,03,02,14,25.70
2010,04,03,02,15,22.50
2010,04,03,02,16,9.60
2010,04,03,02,17,20.90
2010,04,03,02,18,32.20
2010,04,03,02,19,30.60
2010,04,03,02,20,24.20
2010,04,03,02,21,17.70
2010,04,03,02,22,33.80
2010,04,03,02,23,25.70
2010,04,03,02,24,37.00
2010,04,03,02,25,45.10
2010,04,03,02,26,32.20
2010,04,03,02,27,22.50
2010,04,03,02,28,17.70
2010,04,03,02,29,25.70
2010,04,03,02,30,17.70
2010,04,03,02,31,24.20
2010,04,03,02,32,33.80
2010,04,03,02,33,29.00
2010,04,03,02,34,22.50
2010,04,03,02,35,19.30
2010,04,03,02,36,37.00
2010,04,03,02,37,25.70
2010,04,03,02,38,17.70
2010,04,03,02,39,22.50
2010,04,03,02,40,35.40
2010,04,03,02,41,24.20
2010,04,03,02,42,27.40
2010,04,03,02,43,25.70
2010,04,03,02,44,14.50
2010,04,03,02,45,35.40
2010,04,03,02,46,16.10
2010,04,03,02,47,29.00
2010,04,03,02,48,29.00
2010,04,03,02,49,19.30
2010,04,03,02,50,17.70
2010,04,03,02,51,19.30
2010,04,03,02,52,22.50
2010,04,03,02,53,17.70
2010,04,03,02,54,20.90
2010,04,03,02,55,27.40
2010,04,03,02,56,25.70
2010,04,03,02,57,22.50
2010,04,03,02,58,25.70
2010,04,03,02,59,25.70
2010,04,03,03,00,25.70
2010,04,03,03,01,22.50
2010,04,03,03,02,17.70
2010,04,03,03,03,16.10
2010,04,03,03,04,20.90
2010,04,03,03,05,24.20
2010,04,03,03,06,30.60
2010,04,03,03,07,40.20
2010,04,03,03,08,19.30
2010,04,03,03,09,27.40
2010,04,03,03,10,22.50
2010,04,03,03,11,25.70
2010,04,03,03,12,29.00
2010,04,03,03,13,25.70
2010,04,03,03,14,25.70
2010,04,03,03,15,20.90
2010,04,03,03,16,29.00
2010,04,03,03,17,33.80
2010,04,03,03,18,25.70
2010,04,03,03,19,22.50
2010,04,03,03,20,30.60
2010,04,03,03,21,27.40
2010,04,03,03,22,29.00
2010,04,03,03,23,20.90
2010,04,03,03,24,30.60
2010,04,03,03,25,22.50
2010,04,03,03,26,30.60
2010,04,03,03,27,22.50
2010,04,03,03,28,16.10
2010,04,03,03,29,22.50
2010,04,03,03,30,20.90
2010,04,03,03,31,17.70
2010,04,03,03,32,19.30
2010,04,03,03,33,11.30
2010,04,03,03,34,19.30
2010,04,03,03,35,14.50
2010,04,03,03,36,9.60
2010,04,03,03,37,16.10
2010,04,03,03,38,14.50
2010,04,03,03,39,11.30
2010,04,03,03,40,30.60
2010,04,03,03,41,30.60
2010,04,03,03,42,20.90
2010,04,03,03,43,17.70
2010,04,03,03,44,19.30
2010,04,03,03,45,22.50
2010,04,03,03,46,16.10
2010,04,03,03,47,19.30
2010,04,03,03,48,24.20
2010,04,03,03,49,27.40
2010,04,03,03,50,29.00
2010,04,03,03,51,19.30
2010,04,03,03,52,35.40
2010,04,03,03,53,53.10
2010,04,03,03,54,32.20
2010,04,03,03,55,27.40
2010,04,03,03,56,24.20
2010,04,03,03,57,25.70
2010,04,03,03,58,35.40
2010,04,03,03,59,20.90
2010,04,03,04,00,32.20
2010,04,03,04,01,24.20
2010,04,03,04,02,25.70
2010,04,03,04,03,27.40
2010,04,03,04,04,33.80
2010,04,03,04,05,32.20
2010,04,03,04,06,22.50
2010,04,03,04,07,27.40
2010,04,03,04,08,22.50
2010,04,03,04,09,33.80
2010,04,03,04,10,40.20
2010,04,03,04,11,20.90
2010,04,03,04,12,27.40
2010,04,03,04,13,25.70
2010,04,03,04,14,27.40
2010,04,03,04,15,22.50
2010,04,03,04,16,19.30
2010,04,03,04,17,25.70
2010,04,03,04,18,20.90
2010,04,03,04,19,27.40
2010,04,03,04,20,19.30
2010,04,03,04,21,32.20
2010,04,03,04,22,32.20
2010,04,03,04,23,20.90
2010,04,03,04,24,17.70
2010,04,03,04,25,37.00
2010,04,03,04,26,29.00
2010,04,03,04,27,33.80
2010,04,03,04,28,40.20
2010,04,03,04,29,41.80
2010,04,03,04,30,35.40
2010,04,03,04,31,30.60
2010,04,03,04,32,40.20
2010,04,03,04,33,29.00
2010,04,03,04,34,32.20
2010,04,03,04,35,25.70
2010,04,03,04,36,20.90
2010,04,03,04,37,30.60
2010,04,03,04,38,19.30
2010,04,03,04,39,22.50
2010,04,03,04,40,22.50
2010,04,03,04,41,24.20
2010,04,03,04,42,24.20
2010,04,03,04,43,16.10
2010,04,03,04,44,11.30
2010,04,03,04,45,17.70
2010,04,03,04,46,29.00
2010,04,03,04,47,20.90
2010,04,03,04,48,19.30
2010,04,03,04,49,27.40
2010,04,03,04,50,16.10
2010,04,03,04,51,24.20
2010,04,03,04,52,24.20
2010,04,03,04,53,30.60
2010,04,03,04,54,22.50
2010,04,03,04,55,17.70
2010,04,03,04,56,14.50
2010,04,03,04,57,16.10
2010,04,03,04,58,22.50
2010,04,03,04,59,19.30
2010,04,03,05,00,22.50
2010,04,03,05,01,9.60
2010,04,03,05,02,11.30
2010,04,03,05,03,22.50
2010,04,03,05,04,16.10
2010,04,03,05,05,16.10
2010,04,03,05,06,14.50
2010,04,03,05,07,9.60
2010,04,03,05,08,4.80
2010,04,03,05,09,14.50
2010,04,03,05,10,9.60
2010,04,03,05,11,17.70
2010,04,03,05,12,14.50
2010,04,03,05,13,16.10
2010,04,03,05,14,24.20
2010,04,03,05,15,27.40
2010,04,03,05,16,20.90
2010,04,03,05,17,20.90
2010,04,03,05,18,22.50
2010,04,03,05,19,24.20
2010,04,03,05,20,24.20
2010,04,03,05,21,20.90
2010,04,03,05,22,22.50
2010,04,03,05,23,19.30
2010,04,03,05,24,19.30
2010,04,03,05,25,19.30
2010,04,03,05,26,29.00
2010,04,03,05,27,20.90
2010,04,03,05,28,19.30
2010,04,03,05,29,24.20
2010,04,03,05,30,27.40
2010,04,03,05,31,22.50
2010,04,03,05,32,24.20
2010,04,03,05,33,19.30
2010,04,03,05,34,24.20
2010,04,03,05,35,25.70
2010,04,03,05,36,19.30
2010,04,03,05,37,16.10
2010,04,03,05,38,19.30
2010,04,03,05,39,19.30
2010,04,03,05,40,20.90
2010,04,03,05,41,12.90
2010,04,03,05,42,11.30
2010,04,03,05,43,27.40
2010,04,03,05,44,14.50
2010,04,03,05,45,16.10
2010,04,03,05,46,19.30
2010,04,03,05,47,12.90
2010,04,03,05,48,20.90
2010,04,03,05,49,19.30
2010,04,03,05,50,14.50
2010,04,03,05,51,8.10
2010,04,03,05,52,20.90
2010,04,03,05,53,14.50
2010,04,03,05,54,16.10
2010,04,03,05,55,16.10
2010,04,03,05,56,19.30
2010,04,03,05,57,17.70
2010,04,03,05,58,8.10
2010,04,03,05,59,17.70
2010,04,03,06,00,11.30
2010,04,03,06,01,8.10
2010,04,03,06,02,9.60
2010,04,03,06,03,9.60
2010,04,03,06,04,17.70
2010,04,03,06,05,22.50
2010,04,03,06,06,20.90
2010,04,03,06,07,16.10
2010,04,03,06,08,19.30
2010,04,03,06,09,17.70
2010,04,03,06,10,9.60
2010,04,03,06,11,8.10
2010,04,03,06,12,14.50
2010,04,03,06,13,16.10
2010,04,03,06,14,17.70
2010,04,03,06,15,22.50
2010,04,03,06,16,14.50
2010,04,03,06,17,20.90
2010,04,03,06,18,17.70
2010,04,03,06,19,20.90
2010,04,03,06,20,19.30
2010,04,03,06,21,19.30
2010,04,03,06,22,8.10
2010,04,03,06,23,17.70
2010,04,03,06,24,20.90
2010,04,03,06,25,8.10
2010,04,03,06,26,14.50
2010,04,03,06,27,19.30
2010,04,03,06,28,9.60
2010,04,03,06,29,9.60
2010,04,03,06,30,11.30
2010,04,03,06,31,14.50
2010,04,03,06,32,6.40
2010,04,03,06,33,8.10
2010,04,03,06,34,9.60
2010,04,03,06,35,22.50
2010,04,03,06,36,22.50
2010,04,03,06,37,25.70
2010,04,03,06,38,20.90
2010,04,03,06,39,9.60
2010,04,03,06,40,16.10
2010,04,03,06,41,17.70
2010,04,03,06,42,22.50
2010,04,03,06,43,17.70
2010,04,03,06,44,27.40
2010,04,03,06,45,20.90
2010,04,03,06,46,24.20
2010,04,03,06,47,27.40
2010,04,03,06,48,24.20
2010,04,03,06,49,17.70
2010,04,03,06,50,16.10
2010,04,03,06,51,17.70
2010,04,03,06,52,17.70
2010,04,03,06,53,19.30
2010,04,03,06,54,22.50
2010,04,03,06,55,20.90
2010,04,03,06,56,16.10
2010,04,03,06,57,22.50
2010,04,03,06,58,20.90
2010,04,03,06,59,17.70
2010,04,03,07,00,22.50
2010,04,03,07,01,22.50
2010,04,03,07,02,22.50
2010,04,03,07,03,14.50
2010,04,03,07,04,17.70
2010,04,03,07,05,16.10
2010,04,03,07,06,20.90
2010,04,03,07,07,24.20
2010,04,03,07,08,17.70
2010,04,03,07,09,11.30
2010,04,03,07,10,19.30
2010,04,03,07,11,22.50
2010,04,03,07,12,19.30
2010,04,03,07,13,14.50
2010,04,03,07,14,16.10
2010,04,03,07,15,17.70
2010,04,03,07,16,24.20
2010,04,03,07,17,19.30
2010,04,03,07,18,19.30
2010,04,03,07,19,24.20
2010,04,03,07,20,17.70
2010,04,03,07,21,17.70
2010,04,03,07,22,14.50
2010,04,03,07,23,32.20
2010,04,03,07,24,27.40
2010,04,03,07,25,22.50
2010,04,03,07,26,19.30
2010,04,03,07,27,24.20
2010,04,03,07,28,17.70
2010,04,03,07,29,14.50
2010,04,03,07,30,17.70
2010,04,03,07,31,20.90
2010,04,03,07,32,20.90
2010,04,03,07,33,24.20
2010,04,03,07,34,22.50
2010,04,03,07,35,16.10
2010,04,03,07,36,16.10
2010,04,03,07,37,20.90
2010,04,03,07,38,24.20
2010,04,03,07,39,20.90
2010,04,03,07,40,14.50
2010,04,03,07,41,22.50
2010,04,03,07,42,22.50
2010,04,03,07,43,16.10
2010,04,03,07,44,14.50
2010,04,03,07,45,16.10
2010,04,03,07,46,16.10
2010,04,03,07,47,16.10
2010,04,03,07,48,6.40
2010,04,03,07,49,11.30
2010,04,03,07,50,6.40
2010,04,03,07,51,19.30
2010,04,03,07,52,19.30
2010,04,03,07,53,9.60
2010,04,03,07,54,16.10
2010,04,03,07,55,16.10
2010,04,03,07,56,16.10
2010,04,03,07,57,22.50
2010,04,03,07,58,14.50
2010,04,03,07,59,22.50
2010,04,03,08,00,24.20
2010,04,03,08,01,24.20
2010,04,03,08,02,20.90
2010,04,03,08,03,19.30
2010,04,03,08,04,22.50
2010,04,03,08,05,24.20
2010,04,03,08,06,22.50
2010,04,03,08,07,11.30
2010,04,03,08,08,29.00
2010,04,03,08,09,33.80
2010,04,03,08,10,16.10
2010,04,03,08,11,14.50
2010,04,03,08,12,17.70
2010,04,03,08,13,27.40
2010,04,03,08,14,24.20
2010,04,03,08,15,22.50
2010,04,03,08,16,30.60
2010,04,03,08,17,16.10
2010,04,03,08,18,20.90
2010,04,03,08,19,11.30
2010,04,03,08,20,25.70
2010,04,03,08,21,14.50
2010,04,03,08,22,14.50
2010,04,03,08,23,16.10
2010,04,03,08,24,6.40
2010,04,03,08,25,14.50
2010,04,03,08,26,14.50
2010,04,03,08,27,11.30
2010,04,03,08,28,8.10
2010,04,03,08,29,4.80
2010,04,03,08,30,11.30
2010,04,03,08,31,16.10
2010,04,03,08,32,11.30
2010,04,03,08,33,16.10
2010,04,03,08,34,8.10
2010,04,03,08,35,8.10
2010,04,03,08,36,19.30
2010,04,03,08,37,16.10
2010,04,03,08,38,17.70
2010,04,03,08,39,9.60
2010,04,03,08,40,11.30
2010,04,03,08,41,9.60
2010,04,03,08,42,8.10
2010,04,03,08,43,9.60
2010,04,03,08,44,17.70
2010,04,03,08,45,14.50
2010,04,03,08,46,16.10
2010,04,03,08,47,14.50
2010,04,03,08,48,14.50
2010,04,03,08,49,11.30
2010,04,03,08,50,6.40
2010,04,03,08,51,20.90
2010,04,03,08,52,11.30
2010,04,03,08,53,14.50
2010,04,03,08,54,24.20
2010,04,03,08,55,9.60
2010,04,03,08,56,20.90
2010,04,03,08,57,22.50
2010,04,03,08,58,14.50
2010,04,03,08,59,35.40
2010,04,03,09,00,27.40
2010,04,03,09,01,17.70
2010,04,03,09,02,20.90
2010,04,03,09,03,11.30
2010,04,03,09,04,19.30
2010,04,03,09,05,17.70
2010,04,03,09,06,8.10
2010,04,03,09,07,17.70
2010,04,03,09,08,16.10
2010,04,03,09,09,11.30
2010,04,03,09,10,19.30
2010,04,03,09,11,20.90
2010,04,03,09,12,14.50
2010,04,03,09,13,11.30
2010,04,03,09,14,17.70
2010,04,03,09,15,20.90
2010,04,03,09,16,9.60
2010,04,03,09,17,17.70
2010,04,03,09,18,12.90
2010,04,03,09,19,22.50
2010,04,03,09,20,11.30
2010,04,03,09,21,25.70
2010,04,03,09,22,22.50
2010,04,03,09,23,19.30
2010,04,03,09,24,16.10
2010,04,03,09,25,22.50
2010,04,03,09,26,16.10
2010,04,03,09,27,17.70
2010,04,03,09,28,16.10
2010,04,03,09,29,20.90
2010,04,03,09,30,16.10
2010,04,03,09,31,29.00
2010,04,03,09,32,29.00
2010,04,03,09,33,29.00
2010,04,03,09,34,20.90
2010,04,03,09,35,24.20
2010,04,03,09,36,16.10
2010,04,03,09,37,17.70
2010,04,03,09,38,14.50
2010,04,03,09,39,24.20
2010,04,03,09,40,14.50
2010,04,03,09,41,14.50
2010,04,03,09,42,17.70
2010,04,03,09,43,16.10
2010,04,03,09,44,9.60
2010,04,03,09,45,8.10
2010,04,03,09,46,17.70
2010,04,03,09,47,14.50
2010,04,03,09,48,16.10
2010,04,03,09,49,20.90
2010,04,03,09,50,11.30
2010,04,03,09,51,16.10
2010,04,03,09,52,25.70
2010,04,03,09,53,24.20
2010,04,03,09,54,16.10
2010,04,03,09,55,16.10
2010,04,03,09,56,19.30
2010,04,03,09,57,17.70
2010,04,03,09,58,17.70
2010,04,03,09,59,16.10
2010,04,03,10,00,25.70
2010,04,03,10,01,29.00
2010,04,03,10,02,33.80
2010,04,03,10,03,24.20
2010,04,03,10,04,24.20
2010,04,03,10,05,22.50
2010,04,03,10,06,11.30
2010,04,03,10,07,22.50
2010,04,03,10,08,19.30
2010,04,03,10,09,19.30
2010,04,03,10,10,24.20
2010,04,03,10,11,30.60
2010,04,03,10,12,20.90
2010,04,03,10,13,32.20
2010,04,03,10,14,25.70
2010,04,03,10,15,29.00
2010,04,03,10,16,27.40
2010,04,03,10,17,24.20
2010,04,03,10,18,20.90
2010,04,03,10,19,24.20
2010,04,03,10,20,33.80
2010,04,03,10,21,16.10
2010,04,03,10,22,20.90
2010,04,03,10,23,19.30
2010,04,03,10,24,27.40
2010,04,03,10,25,22.50
2010,04,03,10,26,22.50
2010,04,03,10,27,30.60
2010,04,03,10,28,19.30
2010,04,03,10,29,14.50
2010,04,03,10,30,19.30
2010,04,03,10,31,20.90
2010,04,03,10,32,16.10
2010,04,03,10,33,22.50
2010,04,03,10,34,9.60
2010,04,03,10,35,22.50
2010,04,03,10,36,20.90
2010,04,03,10,37,29.00
2010,04,03,10,38,25.70
2010,04,03,10,39,24.20
2010,04,03,10,40,20.90
2010,04,03,10,41,19.30
2010,04,03,10,42,16.10
2010,04,03,10,43,19.30
2010,04,03,10,44,19.30
2010,04,03,10,45,27.40
2010,04,03,10,46,27.40
2010,04,03,10,47,19.30
2010,04,03,10,48,20.90
2010,04,03,10,49,11.30
2010,04,03,10,50,17.70
2010,04,03,10,51,19.30
2010,04,03,10,52,19.30
2010,04,03,10,53,9.60
2010,04,03,10,54,19.30
2010,04,03,10,55,12.90
2010,04,03,10,56,9.60
2010,04,03,10,57,6.40
2010,04,03,10,58,6.40
2010,04,03,10,59,14.50
2010,04,03,11,00,11.30
2010,04,03,11,01,14.50
2010,04,03,11,02,16.10
2010,04,03,11,03,12.90
2010,04,03,11,04,11.30
2010,04,03,11,05,8.10
2010,04,03,11,06,16.10
2010,04,03,11,07,17.70
2010,04,03,11,08,22.50
2010,04,03,11,09,17.70
2010,04,03,11,10,25.70
2010,04,03,11,11,29.00
2010,04,03,11,12,16.10
2010,04,03,11,13,11.30
2010,04,03,11,14,6.40
2010,04,03,11,15,6.40
2010,04,03,11,16,9.60
2010,04,03,11,17,9.60
2010,04,03,11,18,8.10
2010,04,03,11,19,11.30
2010,04,03,11,20,11.30
2010,04,03,11,21,4.80
2010,04,03,11,22,6.40
2010,04,03,11,23,4.80
2010,04,03,11,24,6.40
2010,04,03,11,25,9.60
2010,04,03,11,26,9.60
2010,04,03,11,27,8.10
2010,04,03,11,28,9.60
2010,04,03,11,29,9.60
2010,04,03,11,30,6.40
2010,04,03,11,31,4.80
2010,04,03,11,32,6.40
2010,04,03,11,33,4.80
2010,04,03,11,34,9.60
2010,04,03,11,35,6.40
2010,04,03,11,36,1.60
2010,04,03,11,37,4.80
2010,04,03,11,38,6.40
2010,04,03,11,39,3.20
2010,04,03,11,40,4.80
2010,04,03,11,41,3.20
2010,04,03,11,42,4.80
2010,04,03,11,43,8.10
2010,04,03,11,44,4.80
2010,04,03,11,45,4.80
2010,04,03,11,46,4.80
2010,04,03,11,47,3.20
2010,04,03,11,48,3.20
2010,04,03,11,49,4.80
2010,04,03,11,50,6.40
2010,04,03,11,51,4.80
2010,04,03,11,52,1.60
2010,04,03,11,53,4.80
2010,04,03,11,54,9.60
2010,04,03,11,55,6.40
2010,04,03,11,56,6.40
2010,04,03,11,57,8.10
2010,04,03,11,58,4.80
2010,04,03,11,59,9.60
2010,04,03,12,00,9.60
2010,04,03,12,01,6.40
2010,04,03,12,02,9.60
2010,04,03,12,03,8.10
2010,04,03,12,04,4.80
2010,04,03,12,05,8.10
2010,04,03,12,06,8.10
2010,04,03,12,07,9.60
2010,04,03,12,08,8.10
2010,04,03,12,09,9.60
2010,04,03,12,10,6.40
2010,04,03,12,11,6.40
2010,04,03,12,12,8.10
2010,04,03,12,13,9.60
2010,04,03,12,14,9.60
2010,04,03,12,15,6.40
2010,04,03,12,16,8.10
2010,04,03,12,17,6.40
2010,04,03,12,18,8.10
2010,04,03,12,19,4.80
2010,04,03,12,20,4.80
2010,04,03,12,21,6.40
2010,04,03,12,22,8.10
2010,04,03,12,23,6.40
2010,04,03,12,24,6.40
2010,04,03,12,25,6.40
2010,04,03,12,26,8.10
2010,04,03,12,27,4.80
2010,04,03,12,28,4.80
2010,04,03,12,29,3.20
2010,04,03,12,30,6.40
2010,04,03,12,31,6.40
2010,04,03,12,32,4.80
2010,04,03,12,33,4.80
2010,04,03,12,34,9.60
2010,04,03,12,35,8.10
2010,04,03,12,36,4.80
2010,04,03,12,37,11.30
2010,04,03,12,38,11.30
2010,04,03,12,39,8.10
2010,04,03,12,40,11.30
2010,04,03,12,41,11.30
2010,04,03,12,42,11.30
2010,04,03,12,43,9.60
2010,04,03,12,44,6.40
2010,04,03,12,45,4.80
2010,04,03,12,46,3.20
2010,04,03,12,47,11.30
2010,04,03,12,48,9.60
2010,04,03,12,49,12.90
2010,04,03,12,50,6.40
2010,04,03,12,51,8.10
2010,04,03,12,52,11.30
2010,04,03,12,53,8.10
2010,04,03,12,54,4.80
2010,04,03,12,55,6.40
2010,04,03,12,56,1.60
2010,04,03,12,57,1.60
2010,04,03,12,58,4.80
2010,04,03,12,59,8.10
2010,04,03,13,00,9.60
2010,04,03,13,01,6.40
2010,04,03,13,02,4.80
2010,04,03,13,03,6.40
2010,04,03,13,04,6.40
2010,04,03,13,05,12.90
2010,04,03,13,06,11.30
2010,04,03,13,07,6.40
2010,04,03,13,08,14.50
2010,04,03,13,09,9.60
2010,04,03,13,10,8.10
2010,04,03,13,11,6.40
2010,04,03,13,12,6.40
2010,04,03,13,13,6.40
2010,04,03,13,14,4.80
2010,04,03,13,15,9.60
2010,04,03,13,16,12.90
2010,04,03,13,17,14.50
2010,04,03,13,18,9.60
2010,04,03,13,19,11.30
2010,04,03,13,20,9.60
2010,04,03,13,21,8.10
2010,04,03,13,22,9.60
2010,04,03,13,23,14.50
2010,04,03,13,24,11.30
2010,04,03,13,25,14.50
2010,04,03,13,26,14.50
2010,04,03,13,27,17.70
2010,04,03,13,28,17.70
2010,04,03,13,29,14.50
2010,04,03,13,30,11.30
2010,04,03,13,31,14.50
2010,04,03,13,32,17.70
2010,04,03,13,33,11.30
2010,04,03,13,34,14.50
2010,04,03,13,35,12.90
2010,04,03,13,36,17.70
2010,04,03,13,37,12.90
2010,04,03,13,38,12.90
2010,04,03,13,39,16.10
2010,04,03,13,40,12.90
2010,04,03,13,41,17.70
2010,04,03,13,42,17.70
2010,04,03,13,43,16.10
2010,04,03,13,44,14.50
2010,04,03,13,45,17.70
2010,04,03,13,46,14.50
2010,04,03,13,47,9.60
2010,04,03,13,48,14.50
2010,04,03,13,49,17.70
2010,04,03,13,50,12.90
2010,04,03,13,51,19.30
2010,04,03,13,52,14.50
2010,04,03,13,53,17.70
2010,04,03,13,54,19.30
2010,04,03,13,55,16.10
2010,04,03,13,56,16.10
2010,04,03,13,57,16.10
2010,04,03,13,58,20.90
2010,04,03,13,59,12.90
2010,04,03,14,00,12.90
2010,04,03,14,01,14.50
2010,04,03,14,02,14.50
2010,04,03,14,03,9.60
2010,04,03,14,04,16.10
2010,04,03,14,05,17.70
2010,04,03,14,06,11.30
2010,04,03,14,07,11.30
2010,04,03,14,08,16.10
2010,04,03,14,09,16.10
2010,04,03,14,10,16.10
2010,04,03,14,11,17.70
2010,04,03,14,12,11.30
2010,04,03,14,13,14.50
2010,04,03,14,14,16.10
2010,04,03,14,15,17.70
2010,04,03,14,16,14.50
2010,04,03,14,17,17.70
2010,04,03,14,18,16.10
2010,04,03,14,19,17.70
2010,04,03,14,20,17.70
2010,04,03,14,21,14.50
2010,04,03,14,22,16.10
2010,04,03,14,23,17.70
2010,04,03,14,24,19.30
2010,04,03,14,25,19.30
2010,04,03,14,26,12.90
2010,04,03,14,27,14.50
2010,04,03,14,28,16.10
2010,04,03,14,29,14.50
2010,04,03,14,30,16.10
2010,04,03,14,31,17.70
2010,04,03,14,32,19.30
2010,04,03,14,33,19.30
2010,04,03,14,34,16.10
2010,04,03,14,35,16.10
2010,04,03,14,36,19.30
2010,04,03,14,37,19.30
2010,04,03,14,38,12.90
2010,04,03,14,39,17.70
2010,04,03,14,40,19.30
2010,04,03,14,41,20.90
2010,04,03,14,42,16.10
2010,04,03,14,43,12.90
2010,04,03,14,44,17.70
2010,04,03,14,45,16.10
2010,04,03,14,46,14.50
2010,04,03,14,47,17.70
2010,04,03,14,48,22.50
2010,04,03,14,49,20.90
2010,04,03,14,50,17.70
2010,04,03,14,51,16.10
2010,04,03,14,52,19.30
2010,04,03,14,53,17.70
2010,04,03,14,54,14.50
2010,04,03,14,55,19.30
2010,04,03,14,56,20.90
2010,04,03,14,57,20.90
2010,04,03,14,58,19.30
2010,04,03,14,59,19.30
2010,04,03,15,00,16.10
2010,04,03,15,01,20.90
2010,04,03,15,02,17.70
2010,04,03,15,03,16.10
2010,04,03,15,04,8.10
2010,04,03,15,05,9.60
2010,04,03,15,06,14.50
2010,04,03,15,07,14.50
2010,04,03,15,08,19.30
2010,04,03,15,09,19.30
2010,04,03,15,10,16.10
2010,04,03,15,11,16.10
2010,04,03,15,12,14.50
2010,04,03,15,13,20.90
2010,04,03,15,14,20.90
2010,04,03,15,15,17.70
2010,04,03,15,16,19.30
2010,04,03,15,17,19.30
2010,04,03,15,18,12.90
2010,04,03,15,19,12.90
2010,04,03,15,20,14.50
2010,04,03,15,21,9.60
2010,04,03,15,22,16.10
2010,04,03,15,23,16.10
2010,04,03,15,24,14.50
2010,04,03,15,25,14.50
2010,04,03,15,26,17.70
2010,04,03,15,27,16.10
2010,04,03,15,28,16.10
2010,04,03,15,29,17.70
2010,04,03,15,30,16.10
2010,04,03,15,31,16.10
2010,04,03,15,32,16.10
2010,04,03,15,33,16.10
2010,04,03,15,34,16.10
2010,04,03,15,35,19.30
2010,04,03,15,36,17.70
2010,04,03,15,37,17.70
2010,04,03,15,38,14.50
2010,04,03,15,39,9.60
2010,04,03,15,40,9.60
2010,04,03,15,41,8.10
2010,04,03,15,42,8.10
2010,04,03,15,43,14.50
2010,04,03,15,44,17.70
2010,04,03,15,45,9.60
2010,04,03,15,46,9.60
2010,04,03,15,47,8.10
2010,04,03,15,48,9.60
2010,04,03,15,49,8.10
2010,04,03,15,50,9.60
2010,04,03,15,51,14.50
2010,04,03,15,52,17.70
2010,04,03,15,53,11.30
2010,04,03,15,54,9.60
2010,04,03,15,55,14.50
2010,04,03,15,56,19.30
2010,04,03,15,57,19.30
2010,04,03,15,58,16.10
2010,04,03,15,59,19.30
2010,04,03,16,00,20.90
2010,04,03,16,01,20.90
2010,04,03,16,02,22.50
2010,04,03,16,03,14.50
2010,04,03,16,04,16.10
2010,04,03,16,05,9.60
2010,04,03,16,06,9.60
2010,04,03,16,07,9.60
2010,04,03,16,08,9.60
2010,04,03,16,09,14.50
2010,04,03,16,10,11.30
2010,04,03,16,11,17.70
2010,04,03,16,12,14.50
2010,04,03,16,13,11.30
2010,04,03,16,14,9.60
2010,04,03,16,15,11.30
2010,04,03,16,16,19.30
2010,04,03,16,17,16.10
2010,04,03,16,18,16.10
2010,04,03,16,19,9.60
2010,04,03,16,20,9.60
2010,04,03,16,21,8.10
2010,04,03,16,22,9.60
2010,04,03,16,23,11.30
2010,04,03,16,24,8.10
2010,04,03,16,25,8.10
2010,04,03,16,26,9.60
2010,04,03,16,27,16.10
2010,04,03,16,28,16.10
2010,04,03,16,29,16.10
2010,04,03,16,30,11.30
2010,04,03,16,31,6.40
2010,04,03,16,32,19.30
2010,04,03,16,33,11.30
2010,04,03,16,34,9.60
2010,04,03,16,35,14.50
2010,04,03,16,36,9.60
2010,04,03,16,37,8.10
2010,04,03,16,38,6.40
2010,04,03,16,39,6.40
2010,04,03,16,40,9.60
2010,04,03,16,41,11.30
2010,04,03,16,42,9.60
2010,04,03,16,43,14.50
2010,04,03,16,44,11.30
2010,04,03,16,45,8.10
2010,04,03,16,46,4.80
2010,04,03,16,47,9.60
2010,04,03,16,48,9.60
2010,04,03,16,49,9.60
2010,04,03,16,50,20.90
2010,04,03,16,51,17.70
2010,04,03,16,52,17.70
2010,04,03,16,53,16.10
2010,04,03,16,54,17.70
2010,04,03,16,55,17.70
2010,04,03,16,56,17.70
2010,04,03,16,57,19.30
2010,04,03,16,58,11.30
2010,04,03,16,59,11.30
2010,04,03,17,00,14.50
2010,04,03,17,01,11.30
2010,04,03,17,02,9.60
2010,04,03,17,03,14.50
2010,04,03,17,04,11.30
2010,04,03,17,05,16.10
2010,04,03,17,06,16.10
2010,04,03,17,07,12.90
2010,04,03,17,08,9.60
2010,04,03,17,09,9.60
2010,04,03,17,10,14.50
2010,04,03,17,11,14.50
2010,04,03,17,12,11.30
2010,04,03,17,13,9.60
2010,04,03,17,14,14.50
2010,04,03,17,15,8.10
2010,04,03,17,16,9.60
2010,04,03,17,17,11.30
2010,04,03,17,18,9.60
2010,04,03,17,19,11.30
2010,04,03,17,20,14.50
2010,04,03,17,21,11.30
2010,04,03,17,22,14.50
2010,04,03,17,23,9.60
2010,04,03,17,24,8.10
2010,04,03,17,25,16.10
2010,04,03,17,26,11.30
2010,04,03,17,27,11.30
2010,04,03,17,28,8.10